Terminal Aerodrome Forecast
Issued by NWS Riverton, WY

Home | Current Version | Previous Version | Text Only | Print | Product List | Glossary On
Versions: 1 2 3 4 5 6 7 8 9 10 11 12 13 14 15
000
FTUS45 KRIW 251500 AAA
TAFRIW
TAF AMD
KRIW 251557Z 2516/2612 03020G30KT 1SM -SN BLSN OVC015
      TEMPO 2516/2518 02020G30KT 1/2SM SN BLSN OVC008
     FM252200 36021G30KT 2SM -SN OVC020
     FM260700 35011KT 6SM -SN SCT020 OVC040=

USA.gov is the U.S. government's official web portal to all federal, state and local government web resources and services.